Find Starlink 5926

NORAD ID: 55944 Int'l Des: 2023-037 Owner: SPXS Country: US Constellation: starlink operational
LEOCIRCULAR

Live-Position

3D-Globus wird geladen...

Über Starlink 5926

Beschreibung wird geladen...

Nächste Überflüge

Passes for default location (London). Set your location on the main map for personalized predictions.

Höhenverlauf

Loading altitude history...

Zweizeiliger Elementsatz

1 55944U 23037AG 26106.94434933 .00001195 00000-0 10794-3 0 9996
2 55944 70.0014 187.8677 0003520 274.1033 85.9723 14.98324421169711
Epoch: 16. Apr. 2026 • Age: 10 hours

Aktueller Status

Höhe 576.6 km
Geschwindigkeit 7.57 km/s
Subsatellitenpunkt 29.33°N, 15.46°E
Startdatum 17. März 2023
Alter 3 years
Typ internet

Technische Details

Klassifizierung Payload
Masse 305.00 kg
Trockenmasse 290.00 kg
Gesamtmasse 305.00 kg
Länge 0.20 m
Durchmesser 2.80 m
Spannweite 9.00 m
Form Box + pan
Hersteller SPXS
Bus-Typ Starlink
Phasenstatus In Orbit
Besitzer/Staat SPXS/US

Most Searched